TimeEST,TemperatureF,Dew PointF,Humidity,Sea Level PressureIn,VisibilityMPH,Wind Direction,Wind SpeedMPH,Gust SpeedMPH,PrecipitationIn,Events,Conditions,WindDirDegrees,DateUTC
12:56 AM,10.9,5.0,77,30.14,10.0,Calm,Calm,-,N/A,,Mostly Cloudy,0,2014-01-23 05:56:00
1:56 AM,14.0,6.1,71,30.14,10.0,Calm,Calm,-,N/A,,Overcast,0,2014-01-23 06:56:00
2:56 AM,15.1,6.1,68,30.16,10.0,Calm,Calm,-,N/A,,Mostly Cloudy,0,2014-01-23 07:56:00
3:56 AM,14.0,5.0,67,30.17,10.0,Calm,Calm,-,N/A,,Clear,0,2014-01-23 08:56:00
4:56 AM,12.0,3.9,70,30.19,10.0,Calm,Calm,-,N/A,,Mostly Cloudy,0,2014-01-23 09:56:00
5:56 AM,10.9,5.0,77,30.21,10.0,Calm,Calm,-,N/A,,Clear,0,2014-01-23 10:56:00
6:56 AM,12.0,3.9,70,30.23,10.0,Calm,Calm,-,N/A,,Clear,0,2014-01-23 11:56:00
7:56 AM,12.9,5.0,71,30.24,10.0,Calm,Calm,-,N/A,,Clear,0,2014-01-23 12:56:00
8:56 AM,21.9,12.9,68,30.26,10.0,Calm,Calm,-,N/A,,Clear,0,2014-01-23 13:56:00
9:56 AM,28.0,10.0,47,30.28,10.0,Calm,Calm,-,N/A,,Clear,0,2014-01-23 14:56:00
10:56 AM,32.0,8.1,37,30.29,10.0,West,6.9,-,N/A,,Clear,260,2014-01-23 15:56:00
11:56 AM,35.1,8.1,33,30.27,10.0,NW,6.9,-,N/A,,Clear,320,2014-01-23 16:56:00
12:56 PM,35.1,7.0,31,30.24,10.0,WNW,4.6,-,N/A,,Clear,300,2014-01-23 17:56:00
1:56 PM,37.0,8.1,30,30.23,10.0,Variable,6.9,-,N/A,,Clear,0,2014-01-23 18:56:00
2:56 PM,36.0,8.1,31,30.22,10.0,Variable,3.5,-,N/A,,Clear,0,2014-01-23 19:56:00
3:56 PM,36.0,9.0,33,30.25,10.0,Variable,5.8,-,N/A,,Clear,0,2014-01-23 20:56:00
4:56 PM,36.0,9.0,33,30.27,10.0,Calm,Calm,-,N/A,,Clear,0,2014-01-23 21:56:00
5:56 PM,36.0,9.0,33,30.30,10.0,Variable,5.8,-,N/A,,Clear,0,2014-01-23 22:56:00
6:56 PM,35.1,9.0,34,30.32,10.0,WNW,4.6,-,N/A,,Clear,300,2014-01-23 23:56:00
7:56 PM,34.0,10.0,37,30.34,10.0,NW,6.9,-,N/A,,Clear,320,2014-01-24 00:56:00
8:56 PM,33.1,9.0,37,30.35,10.0,NNW,9.2,-,N/A,,Clear,330,2014-01-24 01:56:00
9:56 PM,32.0,9.0,38,30.38,10.0,NNW,10.4,20.7,N/A,,Clear,340,2014-01-24 02:56:00
10:56 PM,28.9,9.0,43,30.40,10.0,North,11.5,21.9,N/A,,Clear,360,2014-01-24 03:56:00
11:56 PM,26.1,1.9,35,30.42,10.0,NNW,12.7,25.3,N/A,,Clear,340,2014-01-24 04:56:00